East Point, Prince Edward Island

1:09 AM AST on January 21, 2017 (GMT -0400)
East Point

Weather History for CWEP - October, 2012

Change the Weather History Date:

Monday, October 1, 2012

  Actual Average Record
Temperature  
Mean Temperature 60 °F -  
Max Temperature 66 °F - - ()
Min Temperature 54 °F - - ()
Degree Days  
Heating Degree Days 5    
Growing Degree Days 10 (Base 50)    
Moisture  
Dew Point 59 °F    
Average Humidity 88    
Maximum Humidity 97    
Minimum Humidity 76    
Precipitation  
Precipitation 0.16 in - - ()
Sea Level Pressure  
Sea Level Pressure 29.73 in    
Wind  
Wind Speed 14 mph ()    
Max Wind Speed 22 mph    
Max Gust Speed 30 mph    
T = Trace of Precipitation, MM = Missing Value Source: Averaged Metar Reports

Daily Weather History Graph

Daily Weather History Graph

Search for Another Location

Airport or City:

Trip Planner

Search our weather history database for the weather conditions in past years. The results will help you decide how hot, cold, wet, or windy it might be!

Date:

Astronomy

Oct. 01, 2012 Rise Set
Actual Time 7:07 AM ADT 6:46 PM ADT
Civil Twilight 6:36 AM ADT 7:16 PM ADT
Nautical Twilight 6:01 AM ADT 7:51 PM ADT
Astronomical Twilight 5:26 AM ADT 8:27 PM ADT
Moon 7:11 PM ADT (10/1) 8:40 AM ADT (10/1)
Length of Visible Light 12h 39m
Length of Day
11h 39m
Full, 98% of the Moon is Illuminated
Oct 1
Full
Oct 8
Last Quarter
Oct 15
New
Oct 22
First Quarter
Oct 29
Full

Hourly Weather History & Observations

Time (ADT) Temp. Dew Point Humidity Pressure Visibility Wind Dir Wind Speed Gust Speed Precip Events Conditions
12:00 AM 63 °F 61 °F 92% 29.82 in - SSE 18.4 mph - -  
12:00 AM 63.0 °F 61.3 °F 94% 29.82 in - SSE 18.4 mph 25.3 mph 0.03 in   Unknown
1:00 AM 63.5 °F 61.5 °F 93% 29.79 in - SE 19.6 mph 27.6 mph 0.02 in   Unknown
2:00 AM 63.3 °F 60.8 °F 91% 29.77 in - SSE 21.9 mph 29.9 mph N/A   Unknown
3:00 AM 63 °F 61 °F 92% 29.73 in - SSE 17.3 mph - -  
3:00 AM 63.3 °F 61.3 °F 93% 29.73 in - SSE 17.3 mph 25.3 mph N/A   Unknown
4:00 AM 63.0 °F 61.5 °F 95% 29.72 in - SSE 15.0 mph 21.9 mph N/A   Unknown
5:00 AM 63.3 °F 62.1 °F 96% 29.73 in - South 16.1 mph 23.0 mph N/A   Unknown
6:00 AM 62 °F 61 °F 97% 29.73 in - South 13.8 mph - -  
6:00 AM 62.4 °F 61.3 °F 96% 29.73 in - South 13.8 mph - N/A   Unknown
7:00 AM 61.7 °F 60.6 °F 96% 29.75 in - SSW 11.5 mph 19.6 mph N/A   Unknown
8:00 AM 61.2 °F 58.6 °F 91% 29.78 in - SW 17.3 mph 26.5 mph N/A   Unknown
9:00 AM 63 °F 59 °F 83% 29.78 in - SSW 12.7 mph - -  
9:00 AM 62.6 °F 59.0 °F 88% 29.78 in - SSW 12.7 mph - N/A   Unknown
10:00 AM 64.2 °F 59.9 °F 86% 29.79 in - South 11.5 mph 17.3 mph N/A   Unknown
11:00 AM 65.1 °F 60.6 °F 85% 29.78 in - South 13.8 mph 19.6 mph N/A   Unknown
12:00 PM 63 °F 58 °F 80% 29.77 in - SSW 12.7 mph - -  
12:00 PM 63.0 °F 58.3 °F 85% 29.77 in - SSW 12.7 mph - N/A   Unknown
1:00 PM 65.7 °F 59.4 °F 80% 29.75 in - SSW 12.7 mph - N/A   Unknown
2:00 PM 66.2 °F 59.0 °F 78% 29.74 in - SSW 9.2 mph - N/A   Unknown
3:00 PM 64 °F 58 °F 76% 29.73 in - South 9.2 mph - -  
3:00 PM 64.4 °F 58.3 °F 80% 29.73 in - South 9.2 mph - N/A   Unknown
4:00 PM 63.1 °F 58.5 °F 85% 29.71 in - South 11.5 mph - N/A   Unknown
5:00 PM 63.1 °F 58.8 °F 86% 29.68 in - SSE 13.8 mph 19.6 mph N/A   Unknown
6:00 PM 63 °F 58 °F 78% 29.67 in - South 10.4 mph - -  
6:00 PM 62.6 °F 57.7 °F 84% 29.67 in - South 10.4 mph - N/A   Unknown
7:00 PM 62.2 °F 54.7 °F 76% 29.66 in - SSW 11.5 mph - N/A   Unknown
8:00 PM 60.8 °F 56.1 °F 85% 29.66 in - South 17.3 mph 25.3 mph N/A   Unknown
9:00 PM 56 °F 52 °F 83% 29.66 in - West 16.1 mph - -  
9:00 PM 55.6 °F 52.3 °F 89% 29.66 in - West 16.1 mph 24.2 mph 0.09 in   Unknown
10:00 PM 54.7 °F 52.9 °F 94% 29.65 in - WSW 5.8 mph - 0.14 in   Unknown
11:00 PM 55.4 °F 53.4 °F 93% 29.65 in - WSW 10.4 mph - N/A   Unknown